Nashua, NH

7:39 AM EDT on August 21, 2019 (GMT -0400)
Boire

Weather History for KASH - May, 2019

Change the Weather History Date:

Thursday, May 23, 2019

  Actual Average Record
Temperature  
Mean Temperature 61 °F -  
Max Temperature 71 °F 73 °F 93 °F (1964)
Min Temperature 52 °F 45 °F 31 °F (1973)
Degree Days  
Heating Degree Days 4    
Growing Degree Days 11 (Base 50)    
Moisture  
Dew Point 52 °F    
Average Humidity 74    
Maximum Humidity 100    
Minimum Humidity 51    
Precipitation  
Precipitation 0.10 in - - ()
Sea Level Pressure  
Sea Level Pressure 30.03 in    
Wind  
Wind Speed 4 mph ()    
Max Wind Speed 12 mph    
Max Gust Speed 16 mph    
Visibility 10.0 miles    
Events Rain    
Averages and records for this station are not official NWS values.
T = Trace of Precipitation, MM = Missing Value Source: Averaged Metar Reports

Daily Weather History Graph

Daily Weather History Graph

Search for Another Location

Airport or City:

Astronomy

May. 23, 2019 Rise Set
Actual Time 5:16 AM EDT 8:09 PM EDT
Civil Twilight 4:43 AM EDT 8:43 PM EDT
Nautical Twilight 4:00 AM EDT 9:25 PM EDT
Astronomical Twilight 3:11 AM EDT 10:15 PM EDT
Moon No Moon Rise 9:16 AM EDT (5/23)
Length of Visible Light 16h 00m
Length of Day
14h 53m
Waning Gibbous, 77% of the Moon is Illuminated
May 23
Waning Gibbous
May 26
Last Quarter
Jun 3
New
Jun 10
First Quarter
Jun 17
Full

Hourly Weather History & Observations

Time (EDT) Temp. Dew Point Humidity Pressure Visibility Wind Dir Wind Speed Gust Speed Precip Events Conditions
12:56 AM 53.1 °F 46.0 °F 77% 30.27 in 10.0 mi SE 3.5 mph - N/A   Scattered Clouds
1:56 AM 52.0 °F 46.9 °F 83% 30.28 in 10.0 mi SE 4.6 mph - N/A   Mostly Cloudy
3:56 AM 52.0 °F 44.1 °F 74% 30.25 in 10.0 mi Variable 4.6 mph - N/A   Overcast
4:56 AM 52.0 °F 44.1 °F 74% 30.26 in 10.0 mi Calm Calm - N/A   Mostly Cloudy
5:56 AM 52.0 °F 44.1 °F 74% 30.26 in 10.0 mi Calm Calm - N/A   Overcast
6:56 AM 53.1 °F 45.0 °F 74% 30.24 in 10.0 mi Calm Calm - N/A   Overcast
7:56 AM 55.9 °F 46.9 °F 72% 30.22 in 10.0 mi Variable 6.9 mph - N/A   Partly Cloudy
8:56 AM 60.1 °F 48.9 °F 67% 30.21 in 10.0 mi Variable 4.6 mph - N/A   Clear
9:56 AM 63.0 °F 50.0 °F 63% 30.19 in 10.0 mi Variable 4.6 mph - N/A   Clear
10:56 AM 66.9 °F 51.1 °F 57% 30.15 in 10.0 mi South 8.1 mph - N/A   Overcast
11:56 AM 69.1 °F 52.0 °F 54% 30.11 in 10.0 mi SE 11.5 mph - N/A   Overcast
12:56 PM 69.1 °F 54.0 °F 58% 30.07 in 10.0 mi SSE 9.2 mph 16.1 mph N/A   Mostly Cloudy
1:56 PM 69.1 °F 55.0 °F 61% 30.04 in 10.0 mi Variable 6.9 mph - N/A   Overcast
2:56 PM 70.0 °F 53.1 °F 55% 30.02 in 10.0 mi South 9.2 mph - N/A   Clear
3:56 PM 70.0 °F 51.1 °F 51% 30.01 in 10.0 mi Variable 5.8 mph - N/A   Mostly Cloudy
4:56 PM 68.0 °F 50.0 °F 52% 29.96 in 10.0 mi Variable 6.9 mph - N/A   Overcast
5:56 PM 66.0 °F 51.1 °F 59% 29.94 in 10.0 mi Variable 4.6 mph - 0.00 in   Overcast
6:56 PM 64.0 °F 54.0 °F 70% 29.90 in 10.0 mi Variable 5.8 mph - N/A   Mostly Cloudy
7:56 PM 62.1 °F 55.0 °F 78% 29.89 in 10.0 mi Variable 5.8 mph - N/A   Overcast
8:56 PM 61.0 °F 57.0 °F 87% 29.84 in 10.0 mi Variable 4.6 mph - N/A   Mostly Cloudy
9:56 PM 59.0 °F 57.0 °F 93% 29.80 in 10.0 mi Calm Calm - N/A   Partly Cloudy
10:14 PM 59.0 °F 57.2 °F 94% 29.76 in 10.0 mi Calm Calm - N/A   Mostly Cloudy
10:44 PM 59.0 °F 57.2 °F 94% 29.74 in 10.0 mi Calm Calm - N/A   Mostly Cloudy
10:56 PM 59.0 °F 57.9 °F 96% 29.77 in 10.0 mi Variable 3.5 mph - N/A   Mostly Cloudy
11:11 PM 60.8 °F 59.0 °F 94% 29.76 in 10.0 mi NW 5.8 mph - 0.01 in Rain Rain
11:56 PM 59.0 °F 59.0 °F 100% 29.75 in 10.0 mi South 3.5 mph - 0.10 in   Scattered Clouds